GW1285 Weather Reports


time (UTC)temp
C
wind
direction
speed
KPH
gust
KPH
rain 1hr
cm
rain 24hr
cm
rain mn
cm
humidity
%
barometer
mb
20260901173359 18 65 3.2 4.8 0.00 0.18 0.18 65 1021.7
20260901172856 18 49 3.2 3.2 0.00 0.18 0.18 63 1021.8
20260901172355 18 222 3.2 3.2 0.00 0.18 0.18 64 1021.8
20260901171853 18 181 1.6 8.0 0.00 0.18 0.18 60 1021.8
20260901171352 18 253 4.8 4.8 0.00 0.18 0.18 62 1022.2
20260901170851 17 130 0.0 1.6 0.00 0.18 0.18 64 1022.2
20260901170346 17 61 1.6 3.2 0.00 0.18 0.18 65 1022.1
20260901165840 16 76 1.6 1.6 0.00 0.18 0.18 69 1021.9
20260901165334 16 89 0.0 1.6 0.00 0.18 0.18 70 1022.3
20260901164831 17 283 3.2 4.8 0.00 0.18 0.18 68 1022.3
20260901164325 17 280 1.6 4.8 0.00 0.18 0.18 68 1022.2
20260901163820 16 317 3.2 3.2 0.00 0.18 0.18 70 1022.2
20260901163315 16 34 1.6 1.6 0.00 0.18 0.18 73 1022.3
20260901162810 16 39 3.2 3.2 0.00 0.18 0.18 70 1022.2
20260901162309 16 197 1.6 3.2 0.00 0.18 0.18 71 1022.3
20260901161808 16 187 1.6 1.6 0.00 0.18 0.18 70 1022.4
20260901161303 16 187 3.2 3.2 0.00 0.18 0.18 73 1022.3
20260901160758 15 186 1.6 1.6 0.00 0.18 0.18 76 1022.3
20260901160254 14 186 1.6 1.6 0.00 0.18 0.18 78 1022.7
20260901155753 13 185 0.0 1.6 0.00 0.18 0.18 83 1022.3
20260901155248 13 185 0.0 1.6 0.00 0.18 0.18 81 1022.3
20260901154744 13 185 1.6 1.6 0.00 0.18 0.18 82 1022.5
20260901154238 13 187 1.6 1.6 0.00 0.18 0.18 82 1022.5
20260901153734 13 180 0.0 0.0 0.00 0.18 0.18 83 1022.3
20260901153233 13 181 3.2 3.2 0.00 0.18 0.18 80 1022.5
20260901152732 14 174 0.0 1.6 0.00 0.18 0.18 81 1022.7
20260901152231 14 175 1.6 1.6 0.00 0.18 0.18 80 1022.4
20260901151727 13 173 0.0 1.6 0.00 0.18 0.18 83 1022.5
20260901151221 13 173 0.0 0.0 0.00 0.18 0.18 84 1022.3
20260901150720 13 173 0.0 0.0 0.00 0.18 0.18 82 1022.1
20260901150218 13 173 0.0 0.0 0.00 0.18 0.18 84 1022.3
20260901145717 13 172 0.0 0.0 0.00 0.18 0.18 86 1022.3
20260901145211 12 172 0.0 0.0 0.00 0.18 0.18 89 1022.4
20260901144707 12 173 0.0 0.0 0.00 0.18 0.18 90 1022.3
20260901144202 12 173 0.0 1.6 0.00 0.18 0.18 90 1022.4
20260901143657 12 173 0.0 0.0 0.00 0.18 0.18 91 1022.5
20260901143154 12 173 1.6 1.6 0.00 0.18 0.18 91 1022.3
20260901142650 12 172 0.0 0.0 0.00 0.18 0.18 93 1022.4
20260901142148 12 172 0.0 0.0 0.00 0.18 0.18 94 1022.3
20260901141643 11 172 0.0 0.0 0.00 0.18 0.18 94 1022.3
20260901141143 11 172 0.0 0.0 0.00 0.18 0.18 95 1022.3
20260901140642 11 172 0.0 0.0 0.00 0.18 0.18 95 1022.2
20260901140141 11 172 0.0 0.0 0.00 0.18 0.18 95 1022.2
20260901135636 11 172 0.0 0.0 0.00 0.18 0.18 95 1022.1
20260901135131 11 172 0.0 0.0 0.00 0.18 0.18 96 1021.9
20260901134627 11 172 0.0 0.0 0.00 0.18 0.18 96 1021.9
20260901134122 11 172 0.0 0.0 0.00 0.18 0.18 96 1022.1
20260901133621 11 172 0.0 0.0 0.00 0.18 0.18 96 1022.1
20260901133120 11 172 0.0 0.0 0.00 0.18 0.18 96 1022.1
20260901132615 11 172 0.0 0.0 0.00 0.18 0.18 95 1021.8
20260901132114 11 172 0.0 0.0 0.00 0.18 0.18 95 1021.8
20260901131614 11 172 0.0 0.0 0.00 0.18 0.18 95 1021.9
20260901131108 11 172 0.0 0.0 0.00 0.18 0.18 95 1021.8
20260901130604 11 172 0.0 0.0 0.00 0.18 0.18 95 1021.5
20260901125600 11 172 0.0 0.0 0.00 0.18 0.18 95 1021.5
20260901125055 11 172 0.0 0.0 0.00 0.18 0.18 95 1021.6
20260901124550 11 172 0.0 0.0 0.00 0.18 0.18 95 1021.6
20260901124045 11 172 0.0 0.0 0.00 0.18 0.18 95 1021.7
20260901123540 11 172 0.0 0.0 0.00 0.18 0.18 95 1021.7
20260901123039 11 172 0.0 0.0 0.00 0.18 0.18 95 1021.8
20260901122538 11 172 0.0 0.0 0.00 0.18 0.18 95 1021.8
20260901122037 11 172 0.0 0.0 0.00 0.18 0.18 95 1021.7
20260901121532 11 172 0.0 0.0 0.00 0.18 0.18 95 1021.8
20260901121028 11 172 0.0 0.0 0.00 0.18 0.18 95 1022.1
20260901120527 11 172 0.0 0.0 0.00 0.18 0.18 94 1021.8
20260901120023 11 172 0.0 0.0 0.00 0.18 0.18 94 1021.6
20260901115518 11 172 0.0 0.0 0.00 0.18 0.18 94 1021.9
20260901115015 11 172 0.0 1.6 0.00 0.18 0.18 93 1021.7
20260901114511 11 172 0.0 0.0 0.00 0.18 0.18 93 1021.8
20260901114009 11 172 0.0 0.0 0.00 0.18 0.18 93 1021.7
20260901113508 11 172 0.0 0.0 0.13 0.18 0.18 93 1022.1
20260901113004 11 172 0.0 0.0 0.13 0.18 0.18 92 1021.9
20260901112458 11 172 0.0 0.0 0.18 0.15 0.15 92 1021.8
20260901111954 11 172 0.0 0.0 0.30 0.15 0.15 92 1021.7
20260901111452 11 172 0.0 0.0 0.30 0.13 0.13 92 1021.7
20260901110950 11 172 0.0 0.0 0.30 0.10 0.10 92 1021.8
20260901110446 11 172 0.0 0.0 0.13 0.08 0.08 91 1021.8
20260901105942 11 172 0.0 0.0 0.00 0.05 0.05 90 1021.9
20260901105438 11 172 0.0 0.0 0.00 0.05 0.05 91 1021.7
20260901104933 11 172 0.0 0.0 0.18 0.05 0.05 90 1021.8
20260901104428 11 172 0.0 0.0 0.18 0.05 0.05 90 1021.7
20260901103924 11 172 0.0 0.0 0.00 0.03 0.03 89 1021.8
20260901103424 12 172 0.0 0.0 0.13 0.03 0.03 88 1021.7
20260901102918 12 172 0.0 0.0 0.13 0.03 0.03 87 1022.1
20260901102413 12 172 0.0 1.6 0.00 0.00 0.00 85 1021.7
20260901101908 12 172 1.6 1.6 0.00 0.00 0.00 84 1022.2
20260901101403 12 173 1.6 1.6 0.00 0.00 0.00 82 1021.9
20260901100903 12 173 1.6 1.6 0.00 0.00 0.00 81 1021.8
20260901100357 12 173 0.0 0.0 0.00 0.00 0.00 82 1021.5
20260901095856 12 173 0.0 1.6 0.00 0.00 0.00 82 1021.8
20260901095354 12 173 0.0 0.0 0.00 0.00 0.00 82 1021.5
20260901094848 12 173 0.0 0.0 0.00 0.00 0.00 82 1021.5
20260901094343 12 173 0.0 1.6 0.00 0.00 0.00 81 1021.5
20260901093838 12 173 1.6 1.6 0.00 0.00 0.00 82 1021.2
20260901093337 12 173 0.0 0.0 0.00 0.00 0.00 81 1021.5
20260901092833 12 173 0.0 0.0 0.00 0.00 0.00 81 1021.1
20260901092329 12 173 0.0 0.0 0.00 0.00 0.00 81 1021.1
20260901091825 12 173 0.0 0.0 0.00 0.00 0.00 81 1021.1
20260901091324 12 172 1.6 1.6 0.00 0.00 0.00 81 1020.7
20260901090819 12 173 0.0 0.0 0.00 0.00 0.00 80 1020.7
20260901090314 12 173 0.0 1.6 0.00 0.00 0.00 80 1021.1
20260901085810 12 172 0.0 0.0 0.00 0.00 0.00 79 1020.9
20260901085306 12 172 0.0 0.0 0.00 0.00 0.00 79 1021.1
20260901084801 12 172 0.0 0.0 0.00 0.00 0.00 80 1021.1
20260901084257 12 172 0.0 0.0 0.00 0.00 0.00 80 1021.2
20260901083757 12 172 0.0 0.0 0.00 0.00 0.00 78 1021.3
20260901083252 12 172 0.0 0.0 0.00 0.00 0.00 78 1021.1
20260901082750 12 172 0.0 0.0 0.00 0.00 0.00 78 1021.6
20260901082245 13 172 0.0 0.0 0.00 0.00 0.00 77 1021.1
20260901081741 13 172 0.0 0.0 0.00 0.00 0.00 78 1021.6
20260901081240 13 172 0.0 0.0 0.00 0.00 0.00 77 1021.2
20260901080736 13 172 0.0 0.0 0.00 0.00 0.00 76 1021.3
20260901080235 13 172 0.0 0.0 0.00 0.00 0.00 76 1021.2
20260901075734 13 172 0.0 0.0 0.00 0.00 0.00 74 1021.1
20260901075230 13 172 0.0 1.6 0.00 0.00 0.00 75 1021.3
20260901074724 13 172 0.0 0.0 0.00 0.00 0.00 76 1021.6
20260901074219 13 172 0.0 0.0 0.00 0.00 0.00 76 1021.7
20260901073716 13 172 0.0 1.6 0.00 0.00 0.00 74 1021.7
20260901073211 13 172 0.0 1.6 0.00 0.00 0.00 73 1021.9
20260901072706 13 172 1.6 1.6 0.00 0.00 0.00 74 1021.8
20260901072201 13 172 0.0 1.6 0.00 0.00 0.00 70 1021.7
20260901071655 14 172 1.6 1.6 0.00 0.00 0.00 70 1021.9
20260901071154 14 172 1.6 1.6 0.00 0.00 0.00 68 1021.9
20260901070649 15 172 0.0 1.6 0.00 0.00 0.00 66 1021.8
20260901070144 15 166 1.6 1.6 0.00 0.00 0.00 63 1022.1
20260901065643 15 166 3.2 3.2 0.00 0.00 0.00 61 1022.2
20260901065138 15 163 3.2 3.2 0.00 0.00 0.00 58 1021.9
20260901064635 16 183 3.2 4.8 0.00 0.00 0.00 57 1022.1
20260901064132 16 200 4.8 4.8 0.00 0.00 0.00 56 1021.8
20260901063629 16 167 4.8 4.8 0.00 0.00 0.00 55 1021.9
20260901063124 16 164 3.2 4.8 0.00 0.00 0.00 55 1022.1
20260901062619 16 189 3.2 3.2 0.00 0.00 0.00 56 1022.2
20260901062116 15 180 1.6 3.2 0.00 0.00 0.00 57 1022.1
20260901061612 15 168 1.6 3.2 0.00 0.00 0.00 57 1022.2
20260901061111 16 157 3.2 4.8 0.00 0.00 0.00 57 1022.4
20260901060606 16 164 3.2 3.2 0.00 0.00 0.00 56 1022.2
20260901055556 16 155 3.2 3.2 0.00 0.00 0.00 57 1022.1
20260901055054 15 196 3.2 4.8 0.00 0.00 0.00 57 1022.1
20260901054550 16 164 1.6 3.2 0.00 0.00 0.00 59 1022.2
20260901054045 16 172 3.2 8.0 0.00 0.00 0.00 58 1022.2
20260901053541 16 171 3.2 3.2 0.00 0.00 0.00 56 1022.2
20260901053037 16 187 1.6 3.2 0.00 0.00 0.00 55 1022.2
20260901052537 16 187 1.6 3.2 0.00 0.00 0.00 55 1022.4
20260901052032 16 198 1.6 3.2 0.00 0.00 0.00 53 1022.8
20260901051527 16 186 1.6 4.8 0.00 0.00 0.00 52 1022.7
20260901051026 16 201 1.6 4.8 0.00 0.00 0.00 51 1022.7
20260901050521 16 196 3.2 3.2 0.00 0.00 0.00 51 1022.8
20260901050016 16 174 1.6 4.8 0.00 0.00 0.00 51 1022.5
20260901045511 16 168 3.2 3.2 0.00 0.00 0.00 51 1022.7
20260901045006 16 180 1.6 3.2 0.00 0.00 0.00 53 1022.7
20260901044502 16 179 3.2 3.2 0.00 0.00 0.00 56 1022.7
20260901043958 16 179 0.0 1.6 0.00 0.00 0.00 56 1022.7
20260901043453 16 179 1.6 1.6 0.00 0.00 0.00 59 1022.7
20260901042953 16 179 0.0 1.6 0.00 0.00 0.00 57 1022.5
20260901042447 16 179 0.0 1.6 0.00 0.00 0.00 55 1022.7
20260901041943 16 179 1.6 1.6 0.00 0.00 0.00 54 1022.2
20260901041438 16 145 3.2 3.2 0.00 0.00 0.00 52 1021.6
20260901040937 16 98 1.6 1.6 0.00 0.00 0.00 51 1021.3
20260901040433 16 161 0.0 8.0 0.00 0.00 0.00 50 1021.2
20260901035931 16 161 3.2 3.2 0.00 0.00 0.00 50 1021.2
20260901035430 16 65 1.6 4.8 0.00 0.00 0.00 50 1021.2
20260901034929 16 179 0.0 1.6 0.00 0.00 0.00 53 1021.0
20260901034424 16 176 0.0 1.6 0.00 0.00 0.00 51 1021.0
20260901033919 16 176 0.0 1.6 0.00 0.00 0.00 51 1021.2
20260901033418 16 176 0.0 1.6 0.00 0.00 0.00 51 1021.1
20260901032916 16 176 1.6 1.6 0.00 0.00 0.00 53 1021.2
20260901032416 16 175 1.6 1.6 0.00 0.00 0.00 54 1020.9
20260901031911 16 175 0.0 0.0 0.00 0.00 0.00 51 1021.1
20260901031407 16 175 0.0 0.0 0.00 0.00 0.00 52 1021.1
20260901030907 17 175 0.0 0.0 0.00 0.00 0.00 52 1021.3
20260901030403 17 176 0.0 1.6 0.00 0.00 0.00 50 1021.2
20260901025901 17 176 1.6 1.6 0.00 0.00 0.00 49 1021.0
20260901025356 17 176 1.6 3.2 0.00 0.00 0.00 49 1020.9
20260901024851 17 176 0.0 1.6 0.00 0.00 0.00 49 1020.9
20260901024350 17 176 0.0 3.2 0.00 0.00 0.00 50 1021.1
20260901023849 16 153 1.6 1.6 0.00 0.00 0.00 52 1020.9
20260901023344 17 152 1.6 1.6 0.00 0.00 0.00 52 1020.9
20260901022839 17 152 0.0 0.0 0.00 0.00 0.00 50 1020.3
20260901022335 17 152 1.6 1.6 0.00 0.00 0.00 48 1020.7
20260901021830 17 152 1.6 1.6 0.00 0.00 0.00 50 1020.9
20260901021325 17 152 0.0 1.6 0.00 0.00 0.00 49 1020.9
20260901020820 18 132 1.6 3.2 0.00 0.00 0.00 47 1020.9
20260901020315 18 156 1.6 3.2 0.00 0.00 0.00 46 1021.0
20260901015809 18 184 3.2 4.8 0.00 0.00 0.00 45 1020.7
20260901015306 18 202 3.2 4.8 0.00 0.00 0.00 44 1021.0
20260901014805 17 206 3.2 8.0 0.00 0.00 0.00 45 1021.2
20260901014301 17 158 1.6 1.6 0.00 0.00 0.00 52 1021.0
20260901013756 17 158 3.2 3.2 0.00 0.00 0.00 53 1021.0
20260901013252 17 159 0.0 0.0 0.00 0.00 0.00 52 1021.0
20260901012747 18 159 0.0 0.0 0.00 0.00 0.00 50 1021.1
20260901012247 18 159 0.0 0.0 0.00 0.00 0.00 48 1020.9
20260901011743 18 159 0.0 0.0 0.00 0.00 0.00 49 1021.0
20260901011238 18 159 0.0 0.0 0.00 0.00 0.00 49 1021.0
20260901010732 18 159 0.0 0.0 0.00 0.00 0.00 48 1021.2
20260901010227 18 159 0.0 1.6 0.00 0.00 0.00 46 1021.2
20260901005726 19 180 3.2 3.2 0.00 0.00 0.00 43 1021.5
20260901005221 19 115 0.0 0.0 0.00 0.00 0.00 43 1021.5
20260901004721 20 115 0.0 0.0 0.00 0.00 0.00 43 1021.1
20260901004215 20 90 1.6 1.6 0.00 0.00 0.00 39 1021.2
20260901003709 20 144 1.6 3.2 0.00 0.00 0.00 42 1021.2
20260901003209 20 92 1.6 1.6 0.00 0.00 0.00 42 1021.6
20260901002703 20 151 0.0 1.6 0.00 0.00 0.00 41 1021.5
20260901002158 20 184 4.8 11.3 0.00 0.00 0.00 41 1021.3
20260901001653 20 150 4.8 8.0 0.00 0.00 0.00 42 1021.1
20260901001148 20 199 1.6 3.2 0.00 0.00 0.00 43 1021.2
20260901000638 21 199 1.6 3.2 0.00 0.00 0.00 42 1020.9
20260901000133 21 199 4.8 4.8 0.00 0.00 0.00 36 1020.7
20260831235627 21 176 3.2 3.2 0.00 0.00 0.00 37 1020.6
20260831235122 21 200 3.2 4.8 0.00 0.00 0.00 38 1020.9
20260831234621 21 170 3.2 8.0 0.00 0.00 0.00 39 1020.7
20260831234118 21 186 4.8 8.0 0.00 0.00 0.00 37 1020.5
20260831233613 22 188 9.7 14.5 0.00 0.00 0.00 34 1020.3
20260831233108 23 51 0.0 1.6 0.00 0.00 0.00 33 1020.0
20260831232603 23 51 0.0 0.0 0.00 0.00 0.00 32 1020.0
20260831232059 23 51 0.0 0.0 0.00 0.00 0.00 31 1019.8
20260831231555 24 51 0.0 0.0 0.00 0.00 0.00 37 1019.7
20260831231050 24 51 0.0 0.0 0.00 0.00 0.00 30 1019.9
20260831230545 25 50 0.0 0.0 0.00 0.00 0.00 30 1019.8
20260831230040 25 61 0.0 1.6 0.00 0.00 0.00 28 1019.9
20260831225535 25 40 1.6 1.6 0.00 0.00 0.00 29 1019.7
20260831225030 25 25 0.0 1.6 0.00 0.00 0.00 29 1019.9
20260831224525 25 24 1.6 1.6 0.00 0.00 0.00 26 1019.9
20260831224020 25 55 1.6 3.2 0.00 0.00 0.00 25 1019.4
20260831223515 25 58 1.6 8.0 0.00 0.00 0.00 27 1019.7
20260831223012 25 68 1.6 1.6 0.00 0.00 0.00 27 1019.9
20260831222508 25 80 0.0 3.2 0.00 0.00 0.00 26 1019.8
20260831222007 26 214 1.6 4.8 0.00 0.00 0.00 27 1019.8
20260831221503 26 83 3.2 3.2 0.00 0.00 0.00 27 1019.9
20260831220958 26 181 1.6 3.2 0.00 0.00 0.00 24 1020.0
20260831220453 25 263 6.4 4.8 0.00 0.00 0.00 22 1019.8
20260831215948 26 142 1.6 1.6 0.00 0.00 0.00 22 1020.1
20260831215444 27 245 1.6 3.2 0.00 0.00 0.00 21 1020.0
20260831214940 26 68 1.6 3.2 0.00 0.00 0.00 24 1020.0
20260831214437 26 142 0.0 1.6 0.00 0.00 0.00 24 1020.1
20260831213933 26 240 3.2 8.0 0.00 0.00 0.00 23 1020.1
20260831213429 26 351 3.2 4.8 0.00 0.00 0.00 25 1020.0
20260831212929 26 62 1.6 4.8 0.00 0.00 0.00 25 1020.4
20260831212426 26 67 1.6 4.8 0.00 0.00 0.00 27 1020.4
20260831211925 26 93 1.6 8.0 0.00 0.00 0.00 26 1020.5
20260831211420 26 46 4.8 4.8 0.00 0.00 0.00 24 1020.5
20260831210914 26 192 1.6 4.8 0.00 0.00 0.00 28 1021.0
20260831210409 26 275 6.4 8.0 0.00 0.00 0.00 23 1020.7
20260831205905 26 94 1.6 4.8 0.00 0.00 0.00 25 1020.5
20260831205400 25 40 8.0 9.7 0.00 0.00 0.00 27 1020.7
20260831204855 25 308 6.4 9.7 0.00 0.00 0.00 25 1020.7
20260831204354 26 129 1.6 4.8 0.00 0.00 0.00 25 1020.7
20260831203854 26 53 0.0 3.2 0.00 0.00 0.00 25 1021.1
20260831203348 25 255 1.6 3.2 0.00 0.00 0.00 22 1020.9
20260831202846 25 68 0.0 1.6 0.00 0.00 0.00 27 1021.1
20260831202336 25 11 4.8 8.0 0.00 0.00 0.00 22 1020.9
20260831201836 25 93 1.6 1.6 0.00 0.00 0.00 25 1020.9
20260831201335 25 63 0.0 1.6 0.00 0.00 0.00 27 1021.0
20260831200831 25 324 1.6 3.2 0.00 0.00 0.00 24 1021.2
20260831200326 24 168 1.6 3.2 0.00 0.00 0.00 25 1021.5
20260831195821 24 144 3.2 4.8 0.00 0.00 0.00 24 1021.2
20260831195317 24 114 3.2 3.2 0.00 0.00 0.00 29 1021.5
20260831194812 24 94 1.6 4.8 0.00 0.00 0.00 29 1021.5
20260831194307 25 102 3.2 3.2 0.00 0.00 0.00 24 1021.6
20260831193806 25 192 0.0 1.6 0.00 0.00 0.00 25 1021.9
20260831193301 25 80 1.6 3.2 0.00 0.00 0.00 26 1021.8
20260831192756 24 269 1.6 8.0 0.00 0.00 0.00 28 1021.9
20260831192251 24 54 3.2 3.2 0.00 0.00 0.00 26 1022.1
20260831191748 23 178 1.6 4.8 0.00 0.00 0.00 25 1022.2
20260831191244 23 161 3.2 1.6 0.00 0.00 0.00 30 1022.1
20260831190739 23 155 0.0 1.6 0.00 0.00 0.00 30 1021.8
20260831190238 23 155 1.6 1.6 0.00 0.00 0.00 30 1022.2
20260831185733 23 47 3.2 3.2 0.00 0.00 0.00 31 1022.5
20260831185229 22 54 1.6 3.2 0.00 0.00 0.00 37 1022.5
20260831184728 22 30 0.0 3.2 0.00 0.00 0.00 44 1022.5
20260831184224 22 66 0.0 3.2 0.00 0.00 0.00 36 1022.8
20260831183723 21 37 1.6 4.8 0.00 0.00 0.00 37 1022.9
20260831183218 21 169 0.0 3.2 0.00 0.00 0.00 40 1022.5
20260831182717 21 163 1.6 1.6 0.00 0.00 0.00 39 1022.8
20260831182213 20 145 1.6 3.2 0.00 0.00 0.00 45 1022.9
20260831181712 20 99 1.6 3.2 0.00 0.00 0.00 43 1022.8
20260831181208 20 168 1.6 8.0 0.00 0.00 0.00 45 1023.2
20260831180703 20 306 3.2 4.8 0.00 0.00 0.00 41 1023.3
20260831180158 20 323 4.8 4.8 0.00 0.00 0.00 40 1023.3
20260831175657 20 66 1.6 4.8 0.00 0.00 0.00 39 1023.2
20260831175154 20 253 1.6 3.2 0.00 0.00 0.00 41 1023.3
20260831174654 19 64 1.6 1.6 0.00 0.00 0.00 38 1023.4
20260831174149 18 65 0.0 3.2 0.00 0.00 0.00 40 1023.5
20260831173647 18 144 1.6 1.6 0.00 0.00 0.00 39 1023.8